EW2288 Weather Reports


Display with metric or nautical units.
time (UTC)temp
F
wind
direction
speed
MPH
gust
MPH
rain 1hr
in
rain 24hr
in
rain mn
in
humidity
%
barometer
mb
20260508073017 45 338 1.0 2.0 0.00 0.00 0.00 61 1015.0
20260508072017 44 45 1.0 3.0 0.00 0.00 0.00 63 1015.1
20260508071017 43 315 1.0 3.0 0.00 0.00 0.00 67 1015.1
20260508070017 42 0.0 2.0 0.00 0.00 0.00 69 1015.1
20260508065037 41 0.0 2.0 0.00 0.00 0.00 70 1015.1
20260508064016 41 0.0 0.0 0.00 0.00 0.00 72 1015.1
20260508063017 40 0.0 0.0 0.00 0.00 0.00 73 1015.2
20260508062016 40 0.0 0.0 0.00 0.00 0.00 75 1015.3
20260508061016 39 0.0 1.0 0.00 0.00 0.00 75 1015.3
20260508060016 39 0.0 1.0 0.00 0.00 0.00 76 1015.3
20260508055016 38 0.0 1.0 0.00 0.00 0.00 78 1015.3
20260508054017 38 0.0 1.0 0.00 0.00 0.00 79 1015.3
20260508053016 37 0.0 0.0 0.00 0.00 0.00 80 1015.3
20260508052017 37 0.0 0.0 0.00 0.00 0.00 81 1015.3
20260508051016 36 0.0 0.0 0.00 0.00 0.00 82 1015.3
20260508050017 35 0.0 0.0 0.00 0.00 0.00 84 1015.2
20260508045016 34 0.0 0.0 0.00 0.00 0.00 85 1015.3
20260508044036 33 158 1.0 2.0 0.00 0.00 0.00 86 1015.2
20260508043016 32 158 2.0 3.0 0.00 0.00 0.00 86 1015.3
20260508042016 32 158 2.0 3.0 0.00 0.00 0.00 87 1015.3
20260508041036 32 158 2.0 5.0 0.00 0.00 0.00 87 1015.3
20260508040016 31 158 2.0 3.0 0.00 0.00 0.00 87 1015.4
20260508035016 31 158 1.0 3.0 0.00 0.00 0.00 87 1015.3
20260508034016 31 158 2.0 5.0 0.00 0.00 0.00 87 1015.5
20260508033016 31 0.0 0.0 0.00 0.00 0.00 87 1015.5
20260508032016 31 0.0 0.0 0.00 0.00 0.00 87 1015.5
20260508031016 31 0.0 0.0 0.00 0.00 0.00 87 1015.5
20260508030016 31 0.0 0.0 0.00 0.00 0.00 87 1015.6
20260508025036 30 0.0 0.0 0.00 0.00 0.00 87 1015.5
20260508024016 31 0.0 0.0 0.00 0.00 0.00 87 1015.6
20260508023036 31 0.0 0.0 0.00 0.00 0.00 86 1015.6
20260508022016 31 0.0 0.0 0.00 0.00 0.00 86 1015.6
20260508021036 31 0.0 0.0 0.00 0.00 0.00 86 1015.7
20260508020016 31 0.0 0.0 0.00 0.00 0.00 86 1015.7
20260508015016 31 0.0 0.0 0.00 0.00 0.00 85 1015.6
20260508014016 31 0.0 0.0 0.00 0.00 0.00 85 1015.7
20260508013016 31 0.0 0.0 0.00 0.00 0.00 84 1015.7
20260508012016 31 0.0 0.0 0.00 0.00 0.00 85 1015.7
20260508011016 31 158 1.0 2.0 0.00 0.00 0.00 85 1015.8
20260508010036 32 0.0 0.0 0.00 0.00 0.00 84 1015.8
20260508005016 32 0.0 1.0 0.00 0.00 0.00 84 1015.9
20260508004156 32 0.0 1.0 0.00 0.00 0.00 84 1016.1
20260508003016 32 0.0 0.0 0.00 0.00 0.00 84 1016.0
20260508002120 32 0.0 1.0 0.00 0.00 0.00 84 1016.0
20260508001016 32 0.0 0.0 0.00 0.00 0.00 83 1016.1
20260508000016 32 0.0 2.0 0.00 0.00 0.00 83 1016.1
20260507235016 32 0.0 0.0 0.00 0.00 0.00 82 1016.1
20260507234016 33 0.0 0.0 0.00 0.00 0.00 81 1016.2
20260507233016 33 0.0 0.0 0.00 0.00 0.00 81 1016.2
20260507232036 33 0.0 0.0 0.00 0.00 0.00 80 1016.2
20260507231016 34 0.0 0.0 0.00 0.00 0.00 79 1016.2
20260507230016 34 0.0 2.0 0.00 0.00 0.00 80 1016.3
20260507225015 34 158 2.0 5.0 0.00 0.00 0.00 79 1016.2
20260507224016 35 0.0 2.0 0.00 0.00 0.00 78 1016.2
20260507223016 35 0.0 0.0 0.00 0.00 0.00 78 1016.2
20260507222015 35 0.0 0.0 0.00 0.00 0.00 77 1016.3
20260507221015 35 0.0 0.0 0.00 0.00 0.00 76 1016.3
20260507220016 36 0.0 0.0 0.00 0.00 0.00 75 1016.2
20260507215017 36 0.0 0.0 0.00 0.00 0.00 74 1016.3
20260507214017 36 0.0 0.0 0.00 0.00 0.00 74 1016.3
20260507213017 37 0.0 2.0 0.00 0.00 0.00 73 1016.2
20260507212017 37 0.0 0.0 0.00 0.00 0.00 72 1016.1
20260507211017 37 0.0 0.0 0.00 0.00 0.00 71 1016.1
20260507210057 38 0.0 0.0 0.00 0.00 0.00 70 1016.1
20260507205017 38 0.0 0.0 0.00 0.00 0.00 71 1016.1
20260507204017 38 0.0 0.0 0.00 0.00 0.00 70 1016.0
20260507203017 39 0.0 0.0 0.00 0.00 0.00 70 1016.0
20260507202017 39 0.0 0.0 0.00 0.00 0.00 69 1015.9
20260507201037 40 0.0 0.0 0.00 0.00 0.00 67 1015.9
20260507200017 40 0.0 0.0 0.00 0.00 0.00 66 1015.7
20260507195017 41 45 1.0 2.0 0.00 0.00 0.00 65 1015.6
20260507194017 42 0.0 0.0 0.00 0.00 0.00 62 1015.5
20260507193037 43 0.0 0.0 0.00 0.00 0.00 60 1015.4
20260507192017 43 0.0 2.0 0.00 0.00 0.00 59 1015.2
20260507191017 44 45 2.0 4.0 0.00 0.00 0.00 58 1015.2
20260507190017 44 23 1.0 3.0 0.00 0.00 0.00 56 1015.1
20260507185017 44 45 2.0 5.0 0.00 0.00 0.00 57 1015.1
20260507184017 44 45 2.0 4.0 0.00 0.00 0.00 57 1015.0
20260507183017 45 23 2.0 3.0 0.00 0.00 0.00 56 1015.0
20260507182017 45 23 2.0 4.0 0.00 0.00 0.00 55 1015.0
20260507181037 45 338 3.0 5.0 0.00 0.00 0.00 54 1014.9
20260507180017 46 338 1.0 5.0 0.00 0.00 0.00 55 1015.0
20260507175017 46 0 1.0 3.0 0.00 0.00 0.00 55 1014.9
20260507174036 46 45 3.0 6.0 0.00 0.00 0.00 55 1014.9
20260507173017 46 338 3.0 6.0 0.00 0.00 0.00 54 1014.7
20260507172016 46 45 3.0 10.0 0.00 0.00 0.00 54 1014.7
20260507171016 46 23 3.0 8.0 0.00 0.00 0.00 53 1014.7
20260507170016 47 0 4.0 10.0 0.00 0.00 0.00 52 1014.7
20260507165016 48 315 2.0 10.0 0.00 0.00 0.00 50 1014.6
20260507164016 48 293 3.0 7.0 0.00 0.00 0.00 48 1014.6
20260507163016 48 293 4.0 9.0 0.00 0.00 0.00 49 1014.6
20260507162017 48 23 3.0 8.0 0.00 0.00 0.00 50 1014.5
20260507161017 48 270 5.0 9.0 0.00 0.00 0.00 49 1014.6
20260507160016 48 315 5.0 10.0 0.00 0.00 0.00 50 1014.5
20260507155016 48 293 5.0 11.0 0.00 0.00 0.00 50 1014.5
20260507154016 48 293 4.0 10.0 0.00 0.00 0.00 50 1014.5
20260507153036 48 293 6.0 10.0 0.00 0.00 0.00 52 1014.5
20260507152056 48 293 5.0 12.0 0.00 0.00 0.00 54 1014.4
20260507151016 48 293 6.0 11.0 0.00 0.00 0.00 53 1014.3
20260507150016 48 315 4.0 10.0 0.00 0.00 0.00 55 1014.3
20260507145016 48 315 4.0 11.0 0.00 0.00 0.00 55 1014.2
20260507144016 48 293 4.0 8.0 0.00 0.00 0.00 55 1014.2
20260507143016 49 315 4.0 12.0 0.00 0.00 0.00 52 1014.2
20260507142016 49 293 5.0 14.0 0.00 0.00 0.00 53 1014.0
20260507141016 49 270 5.0 11.0 0.00 0.00 0.00 52 1013.9
20260507140016 48 293 5.0 11.0 0.00 0.00 0.00 55 1013.9
20260507135016 47 23 3.0 6.0 0.00 0.00 0.00 59 1013.9
20260507134016 46 338 3.0 8.0 0.00 0.00 0.00 61 1013.9
20260507133036 46 0 3.0 9.0 0.00 0.00 0.00 63 1013.8
20260507132036 47 338 2.0 8.0 0.00 0.00 0.00 62 1013.7
20260507131016 46 338 3.0 8.0 0.00 0.00 0.00 62 1013.7
20260507130016 46 45 2.0 6.0 0.00 0.00 0.00 63 1013.7
20260507125016 48 315 5.0 10.0 0.00 0.00 0.00 56 1013.7
20260507124056 48 293 4.0 9.0 0.00 0.00 0.00 49 1013.5
20260507123016 47 270 3.0 11.0 0.00 0.00 0.00 51 1013.5
20260507122016 47 293 3.0 7.0 0.00 0.00 0.00 54 1013.4
20260507121016 46 248 2.0 8.0 0.00 0.00 0.00 52 1013.4
20260507120016 46 248 3.0 7.0 0.00 0.00 0.00 52 1013.3
20260507115036 46 270 4.0 12.0 0.00 0.00 0.00 52 1013.4
20260507114016 46 270 5.0 10.0 0.00 0.00 0.00 53 1013.2
20260507113016 46 270 3.0 10.0 0.00 0.00 0.00 52 1013.2
20260507112016 47 225 4.0 8.0 0.00 0.00 0.00 47 1013.1
20260507111036 47 270 5.0 11.0 0.00 0.00 0.00 46 1012.9
20260507110016 47 225 3.0 9.0 0.00 0.00 0.00 49 1012.8
20260507105016 47 248 4.0 9.0 0.00 0.00 0.00 48 1012.7
20260507104016 47 248 3.0 8.0 0.00 0.00 0.00 49 1012.6
20260507103016 46 225 3.0 7.0 0.00 0.00 0.00 49 1012.5
20260507102016 46 248 4.0 10.0 0.00 0.00 0.00 49 1012.4
20260507101016 45 248 4.0 9.0 0.00 0.00 0.00 50 1012.4
20260507100016 45 270 4.0 11.0 0.00 0.00 0.00 50 1012.4
20260507095015 45 270 4.0 10.0 0.00 0.00 0.00 51 1012.3
20260507094015 46 293 2.0 5.0 0.00 0.00 0.00 57 1012.4
20260507093016 47 293 3.0 9.0 0.00 0.00 0.00 54 1012.2
20260507092016 48 248 3.0 7.0 0.00 0.00 0.00 48 1012.1
20260507091015 49 158 2.0 9.0 0.00 0.00 0.00 49 1012.1
20260507090015 48 248 2.0 7.0 0.00 0.00 0.00 48 1012.1
20260507085037 49 248 5.0 12.0 0.00 0.00 0.00 46 1012.1
20260507084018 49 248 2.0 6.0 0.00 0.00 0.00 52 1012.0
20260507083017 48 225 3.0 8.0 0.00 0.00 0.00 51 1011.9
20260507082017 47 225 2.0 5.0 0.00 0.00 0.00 57 1011.8
20260507081057 47 158 2.0 6.0 0.00 0.00 0.00 61 1011.8
20260507080017 45 158 2.0 4.0 0.00 0.00 0.00 63 1011.7
20260507075017 44 158 4.0 8.0 0.00 0.00 0.00 65 1011.6
20260507074017 43 135 2.0 6.0 0.00 0.00 0.00 68 1011.6